Regional Weather Roundup
Issued by NWS Cleveland, OH

Home | Current Version | Previous Version | Graphics & Text | Print | Product List | Glossary On
Versions: 1 2 3 4 5 6 7 8 9 10 11 12 13 14 15 16 17 18 19 20 21 22 23 24 25 26 27 28 29 30 31 32 33 34 35 36 37 38 39 40 41 42 43 44 45 46 47 48 49 50
214
ASUS41 KCLE 212010
RWRCLE
OHIO REGIONAL WEATHER ROUNDUP
NATIONAL WEATHER SERVICE WILMINGTON, OH
400 PM EDT THU SEP 21 2017

NOTE: "FAIR" INDICATES FEW OR NO CLOUDS BELOW 12,000 FEET WITH NO
SIGNIFICANT WEATHER AND/OR OBSTRUCTIONS TO VISIBILITY.

OHZ001>008-015>018-024>027-034-035-043-044-212100-
   NORTHWEST OHIO

CITY           SKY/WX    TMP DP  RH WIND       PRES   REMARKS
DEFIANCE       FAIR      89  69  51 S6        30.04F HX  93
FINDLAY        FAIR      90  67  46 SW5       30.04F HX  93
TOLEDO EXPRESS FAIR      91  72  53 VRB5      30.04F HX  98
TOLEDO EXEC    FAIR      91  69  48 SW5       30.04F HX  96
LIMA           FAIR      89  68  49 NW3       30.06F HX  93
$$

OHZ009>014-019>023-028>033-038-089-212100-
   NORTHEAST OHIO

CITY           SKY/WX    TMP DP  RH WIND       PRES   REMARKS
CLE-HOPKINS    FAIR      89  65  44 N9        30.09S HX  91
CLE-LAKEFRONT  FAIR      78  69  73 NE8       30.07F
CUY CO. ARPT   SUNNY     86  64  48 N7        30.09F
LORAIN-ELYRIA  FAIR      87  63  44 E3        30.07F
ASHTABULA      FAIR      85  63  47 N7        30.10S
AKRON-CANTON   PTSUNNY   90  60  36 N5        30.09F
WOOSTER        FAIR      87  64  46 N3        30.09F
MANSFIELD      PTSUNNY   88  65  46 E6        30.09F HX  90
YOUNGSTOWN     FAIR      85  64  49 VRB7      30.09F
$$

OHZ042-051>053-060>062-070>072-077>081-212100-
  SOUTHWEST OHIO

CITY           SKY/WX    TMP DP  RH WIND       PRES   REMARKS
CINC-COVINGTON FAIR      88  72  58 W5        30.06F HX  94
CINC-LUNKEN    FAIR      90  68  48 CALM      30.05F HX  94
HAMILTON       PTSUNNY   90  71  53 VRB5      30.06F HX  96
DAYTON         FAIR      88  67  49 W6        30.07F HX  91
WRIGHT-PAT AFB MOSUNNY   89  63  40 CALM      30.06S HX  90
DAYTON GENERAL FAIR      88  68  51 W7        30.06F HX  91
WILMINGTON     FAIR      86  68  54 E3        30.07F
$$

OHZ036-037-039>041-045>050-054>059-063>069-073>076-082>088-212100-
  CENTRAL AND SOUTHEAST OHIO

CITY           SKY/WX    TMP DP  RH WIND       PRES   REMARKS
COLUMBUS       PTSUNNY   89  66  46 NE6       30.06F HX  91
OSU AIRPORT    FAIR      89  67  47 CALM      30.06F HX  92
BOLTON FIELD   MOSUNNY   88  70  55 S3        30.08F HX  92
RICKENBACK AFB FAIR      86  64  46 CALM      30.06F
NEWARK         FAIR      87  62  43 SE3       30.07F
MARION         FAIR      90  64  42 W6        30.07F HX  91
LANCASTER      FAIR      88  63  43 VRB3      30.08F
ZANESVILLE     FAIR      86  63  45 CALM      30.08F
NEW PHILLY     PTSUNNY   90  63  40 VRB3      30.08F HX  91
$$




USA.gov is the U.S. government's official web portal to all federal, state and local government web resources and services.